Home   Weather   Voronezh   Past weeks

Flag for Russia Past Weather in Voronezh, Russia — Yesterday and Last 2 Weeks

28 °F


Feels Like: 22 °F
Forecast: 23 / 36 °F
Wind: 6 mph from South

Location: Voronez

Current Time: Oct 29, 2016 at 2:42:45 AM

Latest Report: Oct 29, 2016 at 2:00 AM

Visibility: 10 mi

Pressure: 30.24 "Hg

Humidity: 74%

Dew Point: 21 °F

Location of VoronezhLocation

Past Weather in Voronezh — Graph


Voronezh Temperature Yesterday

Maximum temperature yesterday: 39 °F (at 2:00 PM)
Minimum temperature yesterday: 27 °F (at 7:30 PM)
Average temperature yesterday: 32 °F

High & Low Weather Summary for the Past Weeks

High45 °F (Oct 15, 12:30 PM)100% (Oct 16, 5:00 AM)30.95 "Hg (Oct 16, 5:00 AM)
Low19 °F (Oct 26, 6:00 AM)41% (Oct 26, 12:00 PM)30.15 "Hg (Oct 14, 1:00 AM)
Average34 °F75%30.57 "Hg
* Reported Oct 14 1:00 AM — Oct 29 1:00 AM, Voronezh, Weather by CustomWeather, © 2016

Note: Actual official high and low records may vary slightly from our data, if they occured in-between our weather recording intervals... More about our weather records


Voronezh Weather History for the Previous 24 Hours

Scroll right to see more
Time TempWeatherWind HumidityBarometerVisibility
1:00 AM
Sat, Oct 29
28 °FClear.8 mph74%30.27 "Hg10 mi
12:30 AM30 °FClear.8 mph69%30.30 "Hg10 mi
12:00 AM30 °FClear.8 mph69%30.30 "Hg10 mi
11:30 PM
Fri, Oct 28
30 °FClear.8 mph69%30.33 "Hg10 mi
11:00 PM30 °FClear.6 mph69%30.33 "Hg10 mi
10:30 PM30 °FClear.6 mph69%30.36 "Hg10 mi
10:00 PM30 °FClear.3 mph69%30.36 "Hg6 mi
9:30 PM30 °FClear.3 mph80%30.36 "Hg5 mi
9:00 PM32 °FClear.3 mph75%30.39 "Hg4 mi
8:00 PM28 °FClear.1 mph80%30.39 "Hg10 mi
7:30 PM27 °FClear.1 mph80%30.42 "Hg10 mi
7:00 PM30 °FClear.1 mph75%30.42 "Hg10 mi
6:30 PM30 °FClear.No wind69%30.42 "Hg10 mi
6:00 PM32 °FClear.1 mph69%30.42 "Hg10 mi
5:30 PM34 °FClear.1 mph65%30.45 "Hg10 mi
5:00 PM36 °FSunny.1 mph60%30.45 "Hg10 mi
4:30 PM37 °FPartly sunny.3 mph56%30.45 "HgN/A
4:00 PM37 °FPartly sunny.1 mph52%30.45 "HgN/A
3:30 PM37 °FPartly sunny.3 mph56%30.48 "HgN/A
3:00 PM37 °FPartly sunny.3 mph56%30.48 "HgN/A
2:30 PM37 °FPartly sunny.3 mph56%30.48 "HgN/A
2:00 PM39 °FPartly sunny.3 mph56%30.51 "HgN/A
1:30 PM37 °FPartly sunny.1 mph65%30.51 "HgN/A
1:00 PM37 °FPartly sunny.3 mph65%30.54 "HgN/A
12:30 PM36 °FPartly sunny.3 mph70%30.54 "HgN/A
12:00 PM36 °FPartly sunny.3 mph70%30.54 "HgN/A
11:30 AM36 °FPartly sunny.3 mph75%30.57 "HgN/A
11:00 AM34 °FPartly sunny.3 mph81%30.57 "HgN/A
10:30 AM34 °FScattered clouds.3 mph81%30.57 "Hg6 mi
10:00 AM34 °FScattered clouds.3 mph81%30.57 "Hg5 mi
9:30 AM32 °FScattered clouds.3 mph87%30.57 "Hg6 mi
9:00 AM32 °FScattered clouds.3 mph87%30.57 "Hg6 mi
8:30 AM32 °FScattered clouds.3 mph87%30.57 "HgN/A
8:00 AM30 °FScattered clouds.3 mph93%30.57 "HgN/A
7:30 AM28 °FSunny.3 mph93%30.57 "Hg10 mi
7:00 AM30 °FClear.3 mph86%30.57 "Hg10 mi
6:30 AM30 °FClear.6 mph86%30.57 "Hg10 mi
6:00 AM30 °FClear.3 mph86%30.57 "Hg10 mi
5:30 AM30 °FClear.3 mph80%30.57 "Hg10 mi
5:00 AM30 °FPassing clouds.3 mph80%30.57 "HgN/A
4:30 AM30 °FPassing clouds.3 mph80%30.57 "HgN/A
4:00 AM30 °FPassing clouds.3 mph75%30.57 "HgN/A
3:30 AM30 °FClear.3 mph75%30.57 "Hg10 mi
3:00 AM30 °FPassing clouds.3 mph75%30.57 "HgN/A
2:30 AM30 °FPassing clouds.1 mph75%30.57 "HgN/A
2:00 AM30 °FPassing clouds.No wind75%30.57 "HgN/A
Weather by CustomWeather, © 2016

See weather overviewHow to use our weather pages